Location: ?????????
(41.1143°N, 22.7905°E)
Time: 07:36:24
(UTC+00:00)

COSMO-SKYMED 1 - Pass Details

Date: 23 March 2026
Orbit: 576 x 578 km, 97.9° (Epoch: 18 April)

Event Time Altitude Azimuth Distance (km) Brightness Sun altitude
Rises 17:26:36 0° 5° (N) 2,799 6.0 -8.8°
Reaches altitude 10° 17:28:49 10° 360° (N) 1,895 5.2 -9.2°
Maximum altitude 17:32:44 44° 288° (WNW) 800 3.8 -9.9°
Drops below altitude 10° 17:36:37 10° 215° (SW) 1,881 5.4 -10.6°
Sets 17:38:48 0° 209° (SSW) 2,774 6.1 -11.1°
